Location: Austin
(30.3000°N, 97.7500°W)
Time: 07:05:14
(UTC-05:00)

H-2A R/B - Pass Details

Date: 16 June 2025
Orbit: 531 x 543 km, 98.2° (Epoch: 07 July)

Event Time Altitude Azimuth Distance (km) Brightness Sun altitude
Rises 04:55:42 0° 11° (NNE) 2,708 7.7 -17.4°
Reaches altitude 10° 04:57:50 10° 12° (NNE) 1,812 6.7 -17.1°
Maximum altitude 05:01:45 88° 290° (WNW) 548 3.2 -16.4°
Enters shadow 05:03:56 25° 194° (SSW) 1,107 4.4 -16.1°
